Location: Arundel
(45.9667°N, 74.6189°W)
Time: 14:57:59
(UTC+00:00)

X-37B - Visible Passes

Search period start: 04 December 2022 00:00
Search period end: 14 December 2022 00:00
Orbit: 277 x 277 km, 45.0° (Epoch: 01 November)

Date Brightness Start Highest point End Pass type
(mag) Time Alt. Az. Time Alt. Az. Time Alt. Az.
07 Dec 3.4 23:32:38 10° SW 23:32:48 11° SW 23:32:48 11° SW visible
08 Dec 2.7 22:01:01 10° SSE 22:01:40 11° SSE 22:02:20 10° SE visible
08 Dec 3.3 23:33:05 10° WSW 23:33:32 14° SW 23:33:32 14° SW visible
09 Dec 2.2 22:00:28 10° SSW 22:02:11 17° SSE 22:03:54 10° ESE visible
09 Dec 3.3 23:33:39 10° WSW 23:34:13 15° WSW 23:34:13 15° WSW visible
10 Dec 1.6 22:00:37 10° SW 22:02:44 25° SSE 22:04:49 10° E visible
10 Dec 3.3 23:34:17 10° W 23:34:52 15° WSW 23:34:52 15° WSW visible
11 Dec 1.0 22:01:01 10° SW 22:03:19 37° SSE 22:05:28 11° E visible
11 Dec 3.3 23:34:57 10° W 23:35:31 15° W 23:35:31 15° W visible
12 Dec 0.4 22:01:33 10° WSW 22:03:58 52° SSE 22:06:07 12° E visible
12 Dec 3.3 23:35:38 10° W 23:36:09 15° W 23:36:09 15° W visible
13 Dec 0.1 22:02:11 10° WSW 22:04:37 65° S 22:06:47 12° E visible
13 Dec 3.4 23:36:19 10° W 23:36:50 15° W 23:36:50 15° W visible
